| time (UTC) | temp F | wind direction | speed MPH | gust MPH | rain 1hr in | rain 24hr in | rain mn in | humidity % | barometer mb |
| 20260507134552 | 55 | 25 | 0.0 | 1.0 | 0.00 | 0.00 | 0.00 | 95 | 1015.6 |
| 20260507133052 | 55 | 301 | 0.0 | 2.0 | 0.00 | 0.00 | 0.00 | 95 | 1015.6 |
| 20260507131551 | 55 | 168 | 0.0 | 0.0 | 0.00 | 0.00 | 0.00 | 95 | 1015.6 |
| 20260507130048 | 0 | 0.0 | 0.0 | 0.00 | 0.00 | 0.00 | 1015.6 | ||
| 20260507124544 | 0 | 0.0 | 0.0 | 0.00 | 0.00 | 0.00 | 1015.4 | ||
| 20260507123039 | 0 | 0.0 | 0.0 | 0.00 | 0.00 | 0.00 | 1015.3 | ||
| 20260507121537 | 52 | 90 | 0.0 | 0.0 | 0.00 | 0.00 | 0.00 | 90 | 1015.3 |
| 20260507120036 | 51 | 91 | 0.0 | 0.0 | 0.00 | 0.00 | 0.00 | 90 | 1015.2 |
| 20260507114535 | 51 | 91 | 0.0 | 0.0 | 0.00 | 0.00 | 0.00 | 90 | 1015.3 |
| 20260507113039 | 52 | 91 | 0.0 | 0.0 | 0.00 | 0.00 | 0.00 | 90 | 1015.3 |
| 20260507111530 | 52 | 90 | 0.0 | 0.0 | 0.00 | 0.00 | 0.00 | 90 | 1015.3 |
| 20260507110029 | 53 | 91 | 0.0 | 0.0 | 0.00 | 0.00 | 0.00 | 90 | 1015.4 |
| 20260507104528 | 53 | 91 | 0.0 | 0.0 | 0.00 | 0.00 | 0.00 | 90 | 1015.4 |
| 20260507103026 | 52 | 91 | 0.0 | 0.0 | 0.00 | 0.00 | 0.00 | 90 | 1015.5 |
| 20260507101537 | 52 | 90 | 0.0 | 0.0 | 0.00 | 0.00 | 0.00 | 89 | 1015.6 |
| 20260507100030 | 52 | 91 | 0.0 | 0.0 | 0.00 | 0.00 | 0.00 | 89 | 1015.7 |
| 20260507094521 | 52 | 91 | 0.0 | 0.0 | 0.00 | 0.00 | 0.00 | 89 | 1015.8 |
| 20260507093025 | 53 | 91 | 0.0 | 0.0 | 0.00 | 0.00 | 0.00 | 89 | 1015.9 |
| 20260507091536 | 53 | 90 | 0.0 | 0.0 | 0.00 | 0.00 | 0.00 | 89 | 1016.0 |
| 20260507090015 | 53 | 91 | 0.0 | 0.0 | 0.00 | 0.00 | 0.00 | 89 | 1016.2 |
| 20260507084511 | 54 | 91 | 0.0 | 0.0 | 0.00 | 0.00 | 0.00 | 89 | 1016.2 |
| 20260507083012 | 54 | 90 | 0.0 | 0.0 | 0.00 | 0.00 | 0.00 | 89 | 1016.4 |
| 20260507081507 | 54 | 91 | 0.0 | 0.0 | 0.00 | 0.00 | 0.00 | 89 | 1016.5 |
| 20260507080007 | 55 | 90 | 0.0 | 0.0 | 0.00 | 0.00 | 0.00 | 89 | 1016.6 |
| 20260507074508 | 55 | 91 | 0.0 | 0.0 | 0.00 | 0.00 | 0.00 | 89 | 1016.7 |
| 20260507073004 | 55 | 91 | 0.0 | 1.0 | 0.00 | 0.00 | 0.00 | 89 | 1016.6 |
| 20260507071504 | 55 | 91 | 0.0 | 0.0 | 0.00 | 0.00 | 0.00 | 88 | 1016.7 |
| 20260507070139 | 55 | 91 | 0.0 | 0.0 | 0.00 | 0.00 | 0.00 | 88 | 1016.8 |
| 20260507064600 | 56 | 91 | 0.0 | 0.0 | 0.00 | 0.00 | 0.00 | 88 | 1016.9 |
| 20260507063102 | 56 | 91 | 0.0 | 0.0 | 0.00 | 0.00 | 0.00 | 88 | 1016.9 |
| 20260507061558 | 56 | 91 | 0.0 | 0.0 | 0.00 | 0.00 | 0.00 | 88 | 1016.9 |
| 20260507060057 | 57 | 91 | 0.0 | 0.0 | 0.00 | 0.00 | 0.00 | 88 | 1016.9 |
| 20260507054606 | 57 | 90 | 0.0 | 1.0 | 0.00 | 0.00 | 0.00 | 87 | 1016.9 |
| 20260507053056 | 57 | 91 | 0.0 | 0.0 | 0.00 | 0.00 | 0.00 | 87 | 1016.8 |
| 20260507051555 | 57 | 91 | 0.0 | 1.0 | 0.00 | 0.00 | 0.00 | 87 | 1016.9 |
| 20260507050056 | 57 | 90 | 0.0 | 1.0 | 0.00 | 0.00 | 0.00 | 87 | 1016.8 |
| 20260507044556 | 58 | 94 | 0.0 | 2.0 | 0.00 | 0.00 | 0.00 | 86 | 1016.8 |
| 20260507043053 | 58 | 95 | 0.0 | 2.0 | 0.00 | 0.00 | 0.00 | 86 | 1016.7 |
| 20260507041552 | 58 | 76 | 0.0 | 2.0 | 0.00 | 0.00 | 0.00 | 86 | 1016.7 |
| 20260507040054 | 58 | 96 | 0.0 | 2.0 | 0.00 | 0.00 | 0.00 | 85 | 1016.6 |
| 20260507034551 | 59 | 56 | 0.0 | 2.0 | 0.00 | 0.00 | 0.00 | 85 | 1016.4 |
| 20260507033051 | 59 | 79 | 0.0 | 3.0 | 0.00 | 0.00 | 0.00 | 83 | 1016.3 |
| 20260507031550 | 60 | 98 | 0.0 | 3.0 | 0.00 | 0.00 | 0.00 | 82 | 1016.2 |
| 20260507030057 | 60 | 60 | 0.0 | 3.0 | 0.00 | 0.00 | 0.00 | 80 | 1016.1 |
| 20260507024548 | 61 | 93 | 0.0 | 2.0 | 0.00 | 0.00 | 0.00 | 79 | 1015.9 |
| 20260507023048 | 62 | 100 | 0.0 | 4.0 | 0.00 | 0.00 | 0.00 | 77 | 1015.8 |
| 20260507021606 | 63 | 88 | 1.0 | 5.0 | 0.00 | 0.00 | 0.00 | 75 | 1015.7 |
| 20260507020053 | 65 | 68 | 1.0 | 6.0 | 0.00 | 0.00 | 0.00 | 74 | 1015.6 |
| 20260507014607 | 66 | 58 | 1.0 | 5.0 | 0.00 | 0.00 | 0.00 | 73 | 1015.6 |
| 20260507013052 | 66 | 84 | 1.0 | 6.0 | 0.00 | 0.00 | 0.00 | 73 | 1015.6 |
| 20260507011546 | 66 | 86 | 3.0 | 8.0 | 0.00 | 0.00 | 0.00 | 73 | 1015.5 |
| 20260507010059 | 67 | 68 | 2.0 | 8.0 | 0.00 | 0.00 | 0.00 | 70 | 1015.5 |
| 20260507004547 | 68 | 77 | 1.0 | 8.0 | 0.00 | 0.00 | 0.00 | 69 | 1015.4 |
| 20260507003043 | 68 | 85 | 0.0 | 6.0 | 0.00 | 0.00 | 0.00 | 68 | 1015.4 |
| 20260507001542 | 68 | 99 | 2.0 | 7.0 | 0.00 | 0.00 | 0.00 | 66 | 1015.3 |
| 20260507000044 | 68 | 89 | 1.0 | 8.0 | 0.00 | 0.00 | 0.00 | 67 | 1015.2 |
| 20260506234540 | 68 | 89 | 4.0 | 9.0 | 0.00 | 0.00 | 0.00 | 66 | 1015.2 |
| 20260506233039 | 68 | 107 | 1.0 | 8.0 | 0.00 | 0.00 | 0.00 | 66 | 1015.1 |
| 20260506231537 | 68 | 61 | 4.0 | 9.0 | 0.00 | 0.00 | 0.00 | 66 | 1015.3 |
| 20260506230037 | 69 | 126 | 4.0 | 12.0 | 0.00 | 0.00 | 0.00 | 67 | 1015.4 |
| 20260506224537 | 68 | 72 | 4.0 | 10.0 | 0.00 | 0.00 | 0.00 | 68 | 1015.4 |
| 20260506223036 | 69 | 61 | 3.0 | 9.0 | 0.00 | 0.00 | 0.00 | 66 | 1015.5 |
| 20260506221532 | 69 | 148 | 4.0 | 9.0 | 0.00 | 0.00 | 0.00 | 67 | 1015.6 |
| 20260506220036 | 70 | 319 | 5.0 | 11.0 | 0.00 | 0.00 | 0.00 | 65 | 1015.6 |
| 20260506214528 | 69 | 89 | 4.0 | 9.0 | 0.00 | 0.00 | 0.00 | 66 | 1015.7 |
| 20260506213027 | 69 | 95 | 4.0 | 10.0 | 0.00 | 0.00 | 0.00 | 67 | 1015.8 |
| 20260506211526 | 69 | 50 | 5.0 | 10.0 | 0.00 | 0.00 | 0.00 | 66 | 1015.9 |
| 20260506210027 | 69 | 143 | 4.0 | 11.0 | 0.00 | 0.00 | 0.00 | 66 | 1016.0 |
| 20260506204525 | 69 | 96 | 6.0 | 11.0 | 0.00 | 0.00 | 0.00 | 65 | 1016.0 |
| 20260506203024 | 69 | 128 | 5.0 | 11.0 | 0.00 | 0.00 | 0.00 | 66 | 1016.1 |
| 20260506201537 | 71 | 96 | 4.0 | 9.0 | 0.00 | 0.00 | 0.00 | 63 | 1016.2 |
| 20260506200026 | 70 | 50 | 3.0 | 10.0 | 0.00 | 0.00 | 0.00 | 64 | 1016.4 |
| 20260506194517 | 70 | 76 | 4.0 | 11.0 | 0.00 | 0.00 | 0.00 | 63 | 1016.6 |
| 20260506193016 | 70 | 56 | 3.0 | 7.0 | 0.00 | 0.00 | 0.00 | 64 | 1016.7 |
| 20260506191513 | 70 | 75 | 3.0 | 8.0 | 0.00 | 0.00 | 0.00 | 63 | 1016.8 |
| 20260506190012 | 70 | 79 | 2.0 | 8.0 | 0.00 | 0.00 | 0.00 | 63 | 1017.1 |
| 20260506184509 | 69 | 87 | 1.0 | 10.0 | 0.00 | 0.00 | 0.00 | 63 | 1017.1 |
| 20260506183008 | 69 | 105 | 0.0 | 5.0 | 0.00 | 0.00 | 0.00 | 63 | 1017.3 |
| 20260506181505 | 68 | 255 | 0.0 | 6.0 | 0.00 | 0.00 | 0.00 | 65 | 1017.3 |
| 20260506180005 | 68 | 96 | 2.0 | 6.0 | 0.00 | 0.00 | 0.00 | 63 | 1017.5 |
| 20260506174501 | 68 | 101 | 1.0 | 5.0 | 0.00 | 0.00 | 0.00 | 63 | 1017.6 |
| 20260506173120 | 67 | 118 | 0.0 | 1.0 | 0.00 | 0.00 | 0.00 | 65 | 1017.8 |
| 20260506171558 | 65 | 99 | 0.0 | 5.0 | 0.00 | 0.00 | 0.00 | 67 | 1017.9 |
| 20260506170054 | 64 | 113 | 1.0 | 4.0 | 0.00 | 0.00 | 0.00 | 67 | 1017.9 |
| 20260506164549 | 64 | 111 | 0.0 | 4.0 | 0.00 | 0.00 | 0.00 | 71 | 1018.0 |
| 20260506163100 | 61 | 111 | 1.0 | 4.0 | 0.00 | 0.00 | 0.00 | 75 | 1018.0 |
| 20260506161544 | 60 | 120 | 0.0 | 4.0 | 0.00 | 0.00 | 0.00 | 79 | 1018.0 |
| 20260506160039 | 59 | 106 | 0.0 | 3.0 | 0.00 | 0.00 | 0.00 | 82 | 1017.9 |
| 20260506154538 | 58 | 99 | 0.0 | 2.0 | 0.00 | 0.02 | 0.00 | 83 | 1017.9 |
| 20260506153030 | 56 | 115 | 0.0 | 1.0 | 0.00 | 0.02 | 0.00 | 86 | 1018.1 |
| 20260506151527 | 54 | 115 | 0.0 | 2.0 | 0.00 | 0.02 | 0.00 | 89 | 1018.0 |
| 20260506150023 | 53 | 128 | 0.0 | 0.0 | 0.00 | 0.02 | 0.00 | 90 | 1018.1 |
| 20260506144519 | 52 | 128 | 0.0 | 0.0 | 0.00 | 0.03 | 0.00 | 91 | 1018.1 |
| 20260506143017 | 51 | 128 | 0.0 | 0.0 | 0.00 | 0.03 | 0.00 | 91 | 1018.0 |
| 20260506141514 | 49 | 128 | 0.0 | 0.0 | 0.00 | 0.03 | 0.00 | 90 | 1017.8 |
| 20260506140014 | 48 | 128 | 0.0 | 0.0 | 0.00 | 0.03 | 0.00 | 90 | 1017.8 |